Voltar ao catálogo

STARLINK-35955

AtivoComunicaçõesVLEO
NORAD 66635·PAYLOAD·🇺🇸 United States

Lançado Nov 23, 2025 de Vandenberg Space Force Base

Loading…

Próximas Passagens (próximas 24 horas)

TLE

AtualizadoSource: CelesTrak SupGP

Época: Sep 14, 2026, 22:32 UTC

1 66635C 25271U   26257.93937500 -.00138360  00000+0 -40882-2 0  2574
2 66635  53.1594 339.6476 0001144  87.8580 113.0967 15.34456516    17

Acompanhe STARLINK-35955 em tempo real com AllMySat

Download on the App Store